#timestamp,LO_Frequency,Hit,StdDev 
1513764015.2,286046997.8,N
1513764035.0,286046997.3,N
1513764035.9,286046997.3,N
1513764055.8,286046996.9,N
1513764075.6,286046999.2,N
1513764095.4,286046997.5,N
1513764115.3,286046995.0,Y
1513764135.1,286046996.9,P
1513764155.9,286046999.5,N
1513764175.7,286046997.3,N
1513764195.5,286046997.7,N
1513764215.4,286046995.4,Y
1513764235.2,286046997.3,P
1513764255.1,286046999.2,N
1513764256.0,286046999.2,N
1513764275.8,286046996.9,Y
1513764295.6,286047001.8,P
1513764315.5,286047005.6,P
1513764335.3,286047004.1,N
1513764355.1,286047001.9,N
1513764375.9,286047002.0,N
1513764395.7,286047003.0,N
1513764415.6,286047003.5,N
1513764435.4,286047004.4,N
1513764455.2,286046999.7,N
1513764475.1,286046999.9,N
1513764476.0,286046999.9,N
1513764495.8,286047000.5,N
1513764515.7,286047002.7,N
1513764535.5,286046998.1,N
1513764555.3,286047001.0,N
1513764575.2,286047002.4,N
1513764595.0,286047002.7,N
1513764595.9,286047002.7,N
1513764615.8,286047000.4,N
1513764635.6,286047002.6,N
1513764655.4,286047000.9,N
1513764675.3,286046998.6,N
1513764695.1,286047000.4,N
1513764715.8,286047001.2,N
1513764735.7,286047000.6,N
1513764755.5,286047001.2,N
1513764775.4,286047000.6,N
1513764795.2,286047000.8,N
1513764815.0,286047000.6,N
1513764815.9,286047000.6,N
1513764835.8,286046998.8,N
1513764855.6,286046994.9,N
1513764875.5,286046996.5,N
1513764895.3,286046996.9,N
1513764915.1,286046999.4,N
1513764935.9,286046997.8,N
1513764955.7,286046999.4,N
1513764975.5,286047011.9,Y
1513764995.4,286046996.9,P
1513765015.2,286047000.8,N
1513765035.1,286046998.2,N
1513765036.0,286046998.2,N
1513765055.8,286047000.7,N
1513765075.6,286046998.6,N
1513765095.5,286047001.2,N
1513765115.3,286046998.5,N
1513765135.2,286047000.3,N
1513765155.9,286047000.4,N
1513765175.7,286046999.0,N
1513765195.6,286046996.9,N
1513765215.4,286046998.8,N
1513765235.2,286046996.7,N
1513765255.1,286046996.7,N
1513765256.0,286046996.7,N
1513765275.8,286046997.4,N
1513765295.7,286046997.6,N
1513765315.5,286046996.9,N
1513765335.3,286046998.9,N
1513765355.2,286046997.1,N
1513765375.0,286046997.6,N
1513765375.9,286046997.6,N
1513765395.8,286046993.4,Y
1513765415.6,286046997.4,P
1513765435.4,286046997.1,P
1513765455.3,286046998.3,P
1513765475.1,286047000.3,N
1513765495.9,286047000.9,N
1513765515.7,286046998.5,N
1513765535.5,286047001.0,N
1513765555.4,286047000.6,N
1513765575.2,286046999.5,N
1513765595.0,286046998.1,N
1513765596.0,286046998.1,N
1513765615.8,286046998.4,N
1513765635.6,286046995.3,Y
1513765655.5,286046997.2,P
1513765675.3,286046995.3,P
1513765695.1,286046995.5,P
1513765715.9,286046997.7,N
1513765735.7,286046997.4,N
1513765755.6,286046995.5,Y
1513765775.4,286046999.0,P
1513765795.2,286047000.7,N
1513765815.1,286047000.2,N
1513765816.0,286047000.2,N
1513765835.8,286047002.4,N
1513765855.7,286047002.1,N
1513765875.5,286047002.2,N
1513765895.3,286047000.1,N
1513765915.2,286047001.1,N
1513765935.0,286046996.8,N
1513765935.9,286046996.8,N
1513765955.8,286046996.9,N
1513765975.6,286046998.5,N
1513765995.4,286046998.7,N
1513766015.3,286047000.4,N
1513766035.1,286046998.1,N
1513766055.8,286046999.4,N
1513766075.7,286046999.1,N
1513766095.5,286046997.3,N
1513766115.4,286046997.5,N
1513766135.2,286046994.3,Y
1513766155.0,286046995.8,P
1513766155.9,286046995.8,N
1513766175.8,286046996.2,N
1513766195.6,286046995.9,N
1513766215.5,286046995.6,Y
1513766235.3,286047002.8,P
1513766255.1,286047003.5,N
1513766275.9,286047005.7,N
1513766295.7,286047004.7,N
1513766315.6,286047005.6,N
1513766335.4,286047006.9,N
1513766355.2,286047007.5,N
1513766375.1,286047004.2,N
1513766376.0,286047004.2,N
1513766395.8,286047003.1,N
1513766415.6,286047001.7,N
1513766435.5,286047003.2,N
1513766455.3,286047004.1,N
1513766475.2,286047004.0,N
1513766495.9,286047005.4,N
1513766515.7,286047006.0,N
1513766535.6,286047004.9,N
1513766555.4,286047004.5,N
1513766575.2,286047004.9,N
1513766595.1,286047006.7,Y
1513766596.0,286047006.7,P
1513766615.8,286047003.1,N
1513766635.7,286047005.6,P
1513766655.5,286047006.2,Y
1513766675.3,286047001.4,P
1513766695.2,286047000.4,N
1513766715.0,286046997.1,N
1513766715.9,286046997.1,N
1513766735.8,286046995.9,N
1513766755.6,286046994.4,N
1513766775.4,286046993.9,N
1513766795.3,286046992.3,N
1513766815.1,286046992.2,N
1513766835.9,286046992.4,N
1513766855.7,286046993.9,N
1513766875.5,286046994.9,N
1513766895.4,286046994.5,N
1513766915.2,286046994.3,N
1513766935.0,286046994.1,N
1513766936.0,286046994.1,N
1513766955.8,286046993.3,N
1513766975.6,286046993.5,N
1513766995.5,286046993.9,N
1513767015.3,286046996.0,N
1513767035.1,286046991.8,N
1513767055.9,286046993.1,N
1513767075.7,286046992.8,N
1513767095.6,286046991.7,N
1513767115.4,286046993.1,N
1513767135.2,286046991.9,N
1513767155.1,286046992.6,N
1513767156.0,286046992.6,N
1513767175.8,286046994.7,N
1513767195.7,286046994.1,N
1513767215.5,286046994.7,N
1513767235.3,286046993.8,Y
1513767255.2,286047000.6,P
1513767275.0,286046998.2,N
1513767275.9,286046998.2,N
1513767295.8,286046999.8,N
1513767315.6,286047000.2,N
1513767335.4,286047002.8,N
1513767355.3,286047000.4,N
1513767375.1,286047002.4,N
1513767395.8,286047002.3,N
1513767415.7,286047002.6,N
1513767435.5,286047000.5,N
1513767455.4,286047002.0,N
1513767475.2,286047002.3,N
1513767495.0,286047000.3,N
1513767495.9,286047000.3,N
1513767515.8,286046999.9,N
1513767535.6,286046998.5,N
1513767555.5,286046999.0,N
1513767575.3,286046998.8,N
1513767595.1,286046998.3,N
